Tracking 31027 objects as of 19-Jul-2025
HD Live streaming from Space Station
objects crossing your sky now

ONEWEB-0644

Track ONEWEB-0644 now!
10-day predictions
ONEWEB-0644 is classified as:


NORAD ID: 55808
Int'l Code: 2023-029N
Perigee: 1,191.2 km
Apogee: 1,194.6 km
Inclination: 87.9 °
Period: 109.1 minutes
Semi major axis: 7563 km
RCS: Unknown
Launch date: March 9, 2023
Source: United Kingdom (UK)
Launch site: AIR FORCE EASTERN TEST RANGE (AFETR)
Your satellite tracking list
FENGYUN 1C DEB
Track 1 satellite(s)




NASA's NSSDC Master Catalog

Two Line Element Set (TLE):
1 55808U 23029N   25199.49962682  .00000112  00000-0  24835-3 0  9993
2 55808  87.9224  11.3313 0002284  82.6164 277.5228 13.19725482114893
Source of the keplerian elements: AFSPC